رامسر, ایران

05:32 PM +0330 on فوریه 23, 2018 (GMT +0330)
Rasht | | Change Station

Elev -39 ft 37.33 °N, 49.61 °E | Updated 32 minutes ago

نيم ابرى
نيم ابرى
48 °F
Feels Like 48 °F
N
7
باد متغير باد from شرق

امروز
High -- | Low -- °F
--% Chance of Precip.
دیروز
High -- | Low -- °F
Precip. -- در
فشار 30.01 در
ديد 6.2 مايل، ميل (در برابر كيلومتر
ابری Few 1500 ft
ابرهای پراکنده 2500 ft
نيم ابرى 8000 ft
قطره شبنم 45 °F
رطوبت 87%
بارش باران 0.00 در
برف عمیق Not available.
6:48 AM 5:57 PM
ربع اول, 53% visible
METAR OIGG 231330Z 09006KT 9999 FEW015CB SCT025 OVC080 09/07 Q1016
فشار 30.01 در
ديد 6.2 مايل، ميل (در برابر كيلومتر
ابری Few 1500 ft
ابرهای پراکنده 2500 ft
نيم ابرى 8000 ft
قطره شبنم 45 °F
رطوبت 87%
بارش باران 0.00 در
برف عمیق Not available.
6:48 AM 5:57 PM
ربع اول, 53% visible
METAR OIGG 231330Z 09006KT 9999 FEW015CB SCT025 OVC080 09/07 Q1016

Get Severe Weather Alerts

Thanks for signing up!

Be on the lookout for a verification email in your inbox.

You'll start receiving the daily forecast at 6 AM.

×

10-Day Weather Forecast

No radar image for this location.
×

Almanac

ستاره شناسی

Feb. 23, 2018 Rise Set
وقت حقیقی
تاریک و روشن اجتماعی
تاریک روشن دریایی
شفق و فلق نجومی
ماه
میزان روشنایی روز
طول روز
Tomorrow will be .
, % of the Moon is Illuminated

Today's Extremes

Country Highs Country Lows

Community

WunderPhotos

Category 6

Welcome to Category 6. This is the collective home for Weather Underground's featured writeups by Dr. Jeff Masters (right), Bob Henson (left), Chris Burt, and other regular contributors.

Nearby

تمیزی هوا

  تمیزی هوا AQ Index آلاینده
Not available.

عمق برف

Station Depth Elevation

Earthquake Activity

شهر Distance Mag. Time & Date
Minimum magnitude displayed is 2.5.

Coastal Water Temperatures

منطقه درجه حرارت

Stations

Nearby Weather Stations

Station Location دما باد سرد قطره شبنم رطوبت باد Precip. Elev ارتقا دادن Type